TimePDT,TemperatureF,Dew PointF,Humidity,Sea Level PressureIn,VisibilityMPH,Wind Direction,Wind SpeedMPH,Gust SpeedMPH,PrecipitationIn,Events,Conditions,WindDirDegrees,DateUTC
12:53 AM,50.0,46.9,89,29.98,10.0,SW,3.5,-,N/A,,Overcast,220,2013-03-28 07:53:00
1:53 AM,50.0,46.9,89,29.98,10.0,Calm,Calm,-,0.00,,Overcast,0,2013-03-28 08:53:00
2:53 AM,48.9,46.0,90,29.99,10.0,WSW,4.6,-,N/A,,Scattered Clouds,250,2013-03-28 09:53:00
3:53 AM,48.9,46.9,93,30.00,10.0,Calm,Calm,-,N/A,,Overcast,0,2013-03-28 10:53:00
4:53 AM,46.0,45.0,96,30.00,7.0,SSE,4.6,-,N/A,,Mostly Cloudy,160,2013-03-28 11:53:00
5:53 AM,46.0,45.0,96,30.01,10.0,SSW,3.5,-,N/A,,Mostly Cloudy,210,2013-03-28 12:53:00
6:53 AM,46.0,44.1,93,30.03,10.0,West,4.6,-,N/A,,Mostly Cloudy,260,2013-03-28 13:53:00
7:53 AM,46.0,44.1,93,30.03,8.0,SE,3.5,-,N/A,,Partly Cloudy,140,2013-03-28 14:53:00
8:53 AM,50.0,46.0,86,30.05,10.0,Calm,Calm,-,N/A,,Mostly Cloudy,0,2013-03-28 15:53:00
9:53 AM,52.0,46.0,80,30.06,10.0,NW,3.5,-,N/A,,Mostly Cloudy,320,2013-03-28 16:53:00
10:53 AM,55.0,48.9,80,30.07,10.0,NW,4.6,-,N/A,,Scattered Clouds,320,2013-03-28 17:53:00
11:53 AM,57.0,46.9,69,30.06,10.0,North,3.5,-,N/A,,Mostly Cloudy,350,2013-03-28 18:53:00
12:53 PM,60.1,45.0,57,30.05,10.0,North,5.8,-,N/A,,Mostly Cloudy,360,2013-03-28 19:53:00
1:53 PM,62.1,45.0,53,30.04,10.0,ENE,4.6,-,N/A,,Overcast,60,2013-03-28 20:53:00
2:53 PM,64.0,46.0,52,30.03,10.0,Variable,3.5,-,N/A,,Overcast,0,2013-03-28 21:53:00
3:53 PM,64.9,46.0,50,30.01,10.0,North,5.8,-,N/A,,Clear,360,2013-03-28 22:53:00
4:53 PM,66.0,45.0,47,30.01,10.0,NE,5.8,-,N/A,,Clear,50,2013-03-28 23:53:00
5:53 PM,64.0,44.1,48,30.01,10.0,NE,4.6,-,N/A,,Scattered Clouds,50,2013-03-29 00:53:00
6:53 PM,61.0,44.1,54,30.02,10.0,NE,3.5,-,N/A,,Clear,50,2013-03-29 01:53:00
7:53 PM,55.0,46.0,72,30.04,10.0,ENE,3.5,-,N/A,,Clear,70,2013-03-29 02:53:00
8:53 PM,52.0,44.1,74,30.05,10.0,East,3.5,-,N/A,,Clear,80,2013-03-29 03:53:00
9:53 PM,53.1,44.1,71,30.06,10.0,Calm,Calm,-,N/A,,Overcast,0,2013-03-29 04:53:00
10:53 PM,50.0,45.0,83,30.07,10.0,SSE,3.5,-,N/A,,Overcast,160,2013-03-29 05:53:00
11:53 PM,50.0,45.0,83,30.08,10.0,SSW,4.6,-,N/A,,Partly Cloudy,200,2013-03-29 06:53:00